Stündliche Wetter Berlin

Heute, 26 Februar, Freitag

Zeit Temperatur Niederschläge Wind Luftdruck Luftfeuchtigkeit
00:00 +11°C° 0 mm 1 m/S 766 mmHg 89%
01:00 +10°C° 0 mm 1 m/S 766 mmHg 88%
02:00 +10°C° 0.4 mm 1 m/S 766 mmHg 90%
03:00 +10°C° 0.4 mm 1 m/S 766 mmHg 92%
04:00 +10°C° 0.4 mm 1 m/S 766 mmHg 94%
05:00 +9°C° 0.9 mm 2 m/S 766 mmHg 94%
06:00 +8°C° 0.9 mm 2 m/S 766 mmHg 94%
07:00 +8°C° 0 mm 2 m/S 766 mmHg 93%
08:00 +8°C° 0.1 mm 2 m/S 767 mmHg 88%
09:00 +8°C° 0.1 mm 3 m/S 767 mmHg 84%
10:00 +8°C° 0.1 mm 3 m/S 767 mmHg 79%
11:00 +8°C° 0 mm 3 m/S 768 mmHg 74%
12:00 +8°C° 0 mm 4 m/S 768 mmHg 69%
13:00 +8°C° 0 mm 4 m/S 768 mmHg 64%
14:00 +8°C° 0 mm 4 m/S 768 mmHg 64%
15:00 +8°C° 0 mm 4 m/S 768 mmHg 64%
16:00 +8°C° 0 mm 4 m/S 768 mmHg 65%
17:00 +8°C° 0 mm 3 m/S 768 mmHg 69%
18:00 +7°C° 0 mm 3 m/S 768 mmHg 73%
19:00 +5°C° 0 mm 3 m/S 769 mmHg 78%
20:00 +5°C° 0 mm 3 m/S 769 mmHg 79%
21:00 +5°C° 0 mm 3 m/S 769 mmHg 81%
22:00 +4°C° 0 mm 4 m/S 769 mmHg 82%
23:00 +4°C° 0 mm 4 m/S 770 mmHg 85%

Morgen, 27 Februar, Samstag

Zeit Temperatur Niederschläge Wind Luftdruck Luftfeuchtigkeit
00:00 +3°C° 0 mm 4 m/S 770 mmHg 87%
01:00 +1°C° 0 mm 4 m/S 770 mmHg 90%
02:00 +1°C° 0 mm 4 m/S 770 mmHg 91%
03:00 +2°C° 0 mm 3 m/S 770 mmHg 92%
04:00 +1°C° 0 mm 3 m/S 770 mmHg 94%
05:00 +1°C° 0 mm 4 m/S 770 mmHg 93%
06:00 +1°C° 0 mm 4 m/S 771 mmHg 92%
07:00 +1°C° 0 mm 4 m/S 771 mmHg 91%
08:00 +3°C° 0 mm 4 m/S 771 mmHg 90%
09:00 +3°C° 0 mm 3 m/S 771 mmHg 89%
10:00 +3°C° 0 mm 3 m/S 772 mmHg 88%
11:00 +4°C° 0 mm 3 m/S 772 mmHg 85%
12:00 +4°C° 0 mm 3 m/S 772 mmHg 82%
13:00 +5°C° 0 mm 3 m/S 773 mmHg 79%
14:00 +5°C° 0 mm 3 m/S 773 mmHg 78%
15:00 +5°C° 0 mm 3 m/S 773 mmHg 76%
16:00 +7°C° 0 mm 3 m/S 773 mmHg 75%
17:00 +6°C° 0 mm 2 m/S 773 mmHg 78%
18:00 +5°C° 0 mm 2 m/S 773 mmHg 82%
19:00 +5°C° 0 mm 2 m/S 773 mmHg 86%
20:00 +4°C° 0 mm 2 m/S 773 mmHg 88%
21:00 +3°C° 0 mm 2 m/S 773 mmHg 90%
22:00 +3°C° 0 mm 2 m/S 774 mmHg 92%
23:00 +2°C° 0 mm 2 m/S 774 mmHg 93%

übermorgen, 28 Februar, Sonntag

Zeit Temperatur Niederschläge Wind Luftdruck Luftfeuchtigkeit
00:00 +2°C° 0 mm 2 m/S 774 mmHg 93%
01:00 +2°C° 0 mm 2 m/S 774 mmHg 94%
02:00 +2°C° 0 mm 2 m/S 773 mmHg 94%
03:00 +1°C° 0 mm 2 m/S 773 mmHg 94%
04:00 +1°C° 0 mm 2 m/S 773 mmHg 95%
05:00 +1°C° 0 mm 2 m/S 773 mmHg 95%
06:00 +1°C° 0 mm 2 m/S 773 mmHg 94%
07:00 +1°C° 0 mm 2 m/S 773 mmHg 94%
08:00 +2°C° 0 mm 2 m/S 773 mmHg 91%
09:00 +4°C° 0 mm 2 m/S 773 mmHg 87%
10:00 +5°C° 0 mm 2 m/S 773 mmHg 83%
11:00 +6°C° 0 mm 2 m/S 773 mmHg 78%
12:00 +8°C° 0 mm 2 m/S 773 mmHg 74%
13:00 +9°C° 0 mm 2 m/S 773 mmHg 69%
14:00 +9°C° 0 mm 2 m/S 772 mmHg 69%
15:00 +9°C° 0 mm 2 m/S 772 mmHg 69%
16:00 +10°C° 0 mm 2 m/S 772 mmHg 69%
17:00 +8°C° 0 mm 2 m/S 772 mmHg 75%
18:00 +8°C° 0 mm 1 m/S 772 mmHg 81%
19:00 +7°C° 0 mm 1 m/S 772 mmHg 87%
20:00 +6°C° 0 mm 1 m/S 772 mmHg 88%
21:00 +6°C° 0 mm 1 m/S 772 mmHg 90%
22:00 +6°C° 0 mm 1 m/S 772 mmHg 91%
23:00 +5°C° 0 mm 1 m/S 772 mmHg 90%

1 März, Montag

Zeit Temperatur Niederschläge Wind Luftdruck Luftfeuchtigkeit
00:00 +5°C° 0 mm 1 m/S 772 mmHg 90%
01:00 +4°C° 0 mm 1 m/S 773 mmHg 89%
02:00 +4°C° 0 mm 1 m/S 772 mmHg 89%
03:00 +3°C° 0 mm 0 m/S 772 mmHg 89%
04:00 +2°C° 0 mm 0 m/S 772 mmHg 88%
05:00 +2°C° 0 mm 0 m/S 772 mmHg 88%
06:00 +3°C° 0 mm 1 m/S 772 mmHg 89%
07:00 +3°C° 0 mm 1 m/S 773 mmHg 89%
08:00 +4°C° 0 mm 1 m/S 773 mmHg 84%
09:00 +6°C° 0 mm 1 m/S 773 mmHg 78%
10:00 +7°C° 0 mm 1 m/S 773 mmHg 73%
11:00 +8°C° 0 mm 1 m/S 773 mmHg 68%
12:00 +10°C° 0 mm 1 m/S 773 mmHg 63%
13:00 +11°C° 0 mm 1 m/S 773 mmHg 58%
14:00 +11°C° 0 mm 1 m/S 773 mmHg 58%
15:00 +10°C° 0 mm 2 m/S 772 mmHg 58%
16:00 +12°C° 0 mm 2 m/S 772 mmHg 59%
17:00 +9°C° 0 mm 2 m/S 772 mmHg 66%
18:00 +8°C° 0 mm 2 m/S 772 mmHg 73%
19:00 +6°C° 0 mm 2 m/S 772 mmHg 80%
20:00 +6°C° 0 mm 2 m/S 772 mmHg 81%
21:00 +6°C° 0 mm 2 m/S 773 mmHg 82%
22:00 +5°C° 0 mm 2 m/S 773 mmHg 84%
23:00 +5°C° 0 mm 2 m/S 772 mmHg 85%

2 März, Dienstag

Zeit Temperatur Niederschläge Wind Luftdruck Luftfeuchtigkeit
00:00 +4°C° 0 mm 2 m/S 772 mmHg 86%
01:00 +4°C° 0 mm 2 m/S 772 mmHg 87%
02:00 +4°C° 0 mm 2 m/S 772 mmHg 88%
03:00 +3°C° 0 mm 2 m/S 772 mmHg 89%
04:00 +3°C° 0 mm 2 m/S 771 mmHg 91%
05:00 +3°C° 0 mm 2 m/S 771 mmHg 91%
06:00 +2°C° 0 mm 2 m/S 771 mmHg 91%
07:00 +2°C° 0 mm 2 m/S 771 mmHg 91%
08:00 +3°C° 0 mm 3 m/S 771 mmHg 83%
09:00 +4°C° 0 mm 3 m/S 771 mmHg 75%
10:00 +7°C° 0 mm 3 m/S 771 mmHg 68%
11:00 +8°C° 0 mm 3 m/S 771 mmHg 63%
12:00 +8°C° 0 mm 4 m/S 770 mmHg 58%
13:00 +11°C° 0 mm 4 m/S 770 mmHg 53%
14:00 +11°C° 0 mm 4 m/S 769 mmHg 53%
15:00 +11°C° 0 mm 4 m/S 769 mmHg 53%
16:00 +11°C° 0 mm 4 m/S 768 mmHg 54%
17:00 +10°C° 0 mm 3 m/S 768 mmHg 60%
18:00 +8°C° 0 mm 3 m/S 768 mmHg 67%
19:00 +6°C° 0 mm 2 m/S 768 mmHg 73%
20:00 +6°C° 0 mm 2 m/S 768 mmHg 76%
21:00 +5°C° 0 mm 2 m/S 768 mmHg 78%
22:00 +5°C° 0 mm 2 m/S 768 mmHg 80%
23:00 +5°C° 0 mm 2 m/S 768 mmHg 82%

3 März, Mittwoch

Zeit Temperatur Niederschläge Wind Luftdruck Luftfeuchtigkeit
00:00 +4°C° 0 mm 2 m/S 768 mmHg 84%
01:00 +4°C° 0 mm 2 m/S 768 mmHg 86%
02:00 +4°C° 0 mm 2 m/S 768 mmHg 87%
03:00 +4°C° 0 mm 2 m/S 767 mmHg 88%
04:00 +4°C° 0 mm 2 m/S 767 mmHg 89%
05:00 +4°C° 0 mm 2 m/S 767 mmHg 89%
06:00 +4°C° 0 mm 2 m/S 767 mmHg 89%
07:00 +3°C° 0 mm 2 m/S 767 mmHg 89%
08:00 +5°C° 0 mm 2 m/S 767 mmHg 83%
09:00 +7°C° 0 mm 2 m/S 767 mmHg 77%
10:00 +9°C° 0 mm 2 m/S 767 mmHg 71%
11:00 +10°C° 0 mm 2 m/S 767 mmHg 67%
12:00 +12°C° 0 mm 3 m/S 767 mmHg 64%
13:00 +13°C° 0 mm 3 m/S 767 mmHg 60%
14:00 +13°C° 0 mm 3 m/S 767 mmHg 62%
15:00 +14°C° 0 mm 2 m/S 766 mmHg 63%
16:00 +14°C° 0 mm 2 m/S 766 mmHg 64%
17:00 +13°C° 0 mm 2 m/S 766 mmHg 69%
18:00 +12°C° 0 mm 2 m/S 766 mmHg 75%
19:00 +10°C° 0 mm 1 m/S 766 mmHg 81%
20:00 +10°C° 0 mm 1 m/S 766 mmHg 83%
21:00 +9°C° 0 mm 1 m/S 766 mmHg 84%
22:00 +9°C° 0 mm 1 m/S 766 mmHg 86%
23:00 +9°C° 0 mm 1 m/S 766 mmHg 87%
Mehr zeigen

Wir brauchen deine Erlaubnis

Meteoprog und unser Service Anbieter werden persönliche Daten aufbewahren, so wie Cookies, Geräte Bezeichnung oder ähnliche Technologien von deinem Gerät und Prozess, so wie Persönliche Daten Inhalte und Werbungen, genauso wie social Media und den Verkehr zu analysieren.

  • Aufbewahrung und/oder Zugang zu deiner Geräte Informationen.

    Cookies, Geräte Bezeichnung oder andere Informationen, können aufbewahrt oder Zugang zu deinem Gerät erhalten, für den Grund, der oben angegeben wird.

  • Personalisierte Werbung und Inhalte, Messungen, Einblick in das Publikum und Produkt Entwicklung.

    Werbungen und Inhalte können personalisiert werden, basierend auf ein Profil. Mehr Daten können besser personalisierte Werbungen und Inhalte hinzufügen. Werbung und Inhalte können gezeigt und gemessen werden. Einblicke über das Publikum, welche die Werbung gesehen haben und den Inhalt, können abgeleitet werden. So wie Daten können genutzt werden, um es zu verbessern oder die Benutzer Erfahrung zu verbessern das System und die Software.

Wenn du “Ich stimme zu” klickst, erlaubst du uns, die Cookies zu benutzen die Geräte Bezeichnung, den Web oder ähnliche Technologien zu benutzen. Deine Settings, können in deinem Gerät bei deinem Browser geändert werden.

Für den bestimmten Zweck, berechtigten Interessen beruhen darauf, mehr als auf den Inhalt. Du kannst mehr darüber in unseren Privaten und Cookie Politik lesen.